CW3518 Weather Reports


Display with metric or nautical units.
time (UTC)temp
F
wind
direction
speed
MPH
gust
MPH
rain 1hr
in
rain 24hr
in
rain mn
in
humidity
%
barometer
mb
20260903104515 76 99 5.0 8.0 0.00 0.00 0.00 87 1013.3
20260903104014 77 104 7.0 8.0 0.00 0.00 0.00 87 1013.3
20260903103515 77 103 6.0 9.0 0.00 0.00 0.00 86 1013.3
20260903102514 76 106 6.0 7.0 0.00 0.00 0.00 87 1013.4
20260903102044 76 86 4.0 4.0 0.00 0.00 0.00 86 1013.4
20260903101514 76 74 3.0 5.0 0.00 0.00 0.00 86 1013.5
20260903101014 77 90 4.0 6.0 0.00 0.00 0.00 85 1013.4
20260903100014 77 98 5.0 5.0 0.00 0.00 0.00 85 1013.5
20260903095014 76 101 4.0 4.0 0.00 0.00 0.00 86 1013.5
20260903094514 76 104 3.0 4.0 0.00 0.00 0.00 86 1013.4
20260903094014 76 45 4.0 4.0 0.00 0.00 0.00 86 1013.4
20260903093513 76 93 3.0 4.0 0.00 0.00 0.00 86 1013.3
20260903092513 76 180 2.0 3.0 0.00 0.00 0.00 86 1013.4
20260903092013 76 242 2.0 5.0 0.00 0.00 0.00 86 1013.4
20260903091513 76 246 5.0 5.0 0.00 0.00 0.00 86 1013.4
20260903090013 76 100 6.0 7.0 0.00 0.00 0.00 86 1013.3
20260903085513 76 85 5.0 7.0 0.00 0.00 0.00 85 1013.2
20260903084513 77 79 5.0 7.0 0.00 0.00 0.00 85 1013.2
20260903084013 77 86 5.0 7.0 0.00 0.00 0.00 84 1013.2
20260903083513 77 87 5.0 9.0 0.00 0.00 0.00 84 1013.2
20260903083013 77 83 7.0 10.0 0.00 0.00 0.00 84 1013.2
20260903082513 77 100 9.0 10.0 0.00 0.00 0.00 84 1013.3
20260903081513 77 93 7.0 9.0 0.00 0.00 0.00 82 1013.4
20260903080512 77 90 4.0 6.0 0.00 0.00 0.00 82 1013.4
20260903080012 77 89 5.0 6.0 0.00 0.00 0.00 82 1013.4
20260903075512 78 77 5.0 6.0 0.00 0.00 0.00 81 1013.3
20260903075012 78 99 5.0 8.0 0.00 0.00 0.00 81 1013.3
20260903074013 78 94 7.0 7.0 0.00 0.00 0.00 80 1013.3
20260903073013 78 102 7.0 7.0 0.00 0.00 0.00 80 1013.4
20260903072512 78 97 6.0 7.0 0.00 0.00 0.00 80 1013.3
20260903072012 78 98 4.0 8.0 0.00 0.00 0.00 79 1013.4
20260903071012 79 90 7.0 10.0 0.00 0.00 0.00 78 1013.5
20260903070512 79 97 7.0 10.0 0.00 0.00 0.00 78 1013.5
20260903065512 79 108 9.0 10.0 0.00 0.00 0.00 77 1013.6
20260903065012 80 118 10.0 12.0 0.00 0.00 0.00 76 1013.6
20260903064512 80 103 9.0 12.0 0.00 0.00 0.00 76 1013.6
20260903064012 80 116 9.0 14.0 0.00 0.00 0.00 75 1013.7
20260903063512 80 108 10.0 15.0 0.00 0.00 0.00 74 1013.7
20260903063012 81 105 11.0 15.0 0.00 0.00 0.00 74 1013.7
20260903062512 81 109 11.0 15.0 0.00 0.00 0.00 73 1013.8
20260903061511 81 124 10.0 11.0 0.00 0.00 0.00 71 1013.9
20260903060511 81 107 7.0 11.0 0.00 0.00 0.00 70 1013.9
20260903060011 82 111 7.0 13.0 0.00 0.00 0.00 69 1013.9
20260903055512 82 111 9.0 13.0 0.00 0.00 0.00 69 1013.9
20260903055011 82 113 8.0 12.0 0.00 0.00 0.00 68 1013.9
20260903054512 82 110 9.0 11.0 0.00 0.00 0.00 68 1013.9
20260903054011 82 110 11.0 11.0 0.00 0.00 0.00 67 1013.9
20260903053511 82 106 8.0 11.0 0.00 0.00 0.00 67 1013.9
20260903053012 82 111 8.0 12.0 0.00 0.00 0.00 66 1013.9
20260903052511 83 106 9.0 13.0 0.00 0.00 0.00 66 1013.9
20260903051511 83 103 9.0 13.0 0.00 0.00 0.00 66 1013.8
20260903051011 83 104 10.0 11.0 0.00 0.00 0.00 66 1013.9
20260903050511 83 102 8.0 10.0 0.00 0.00 0.00 65 1013.9
20260903050011 83 104 9.0 12.0 0.00 0.00 0.00 65 1013.9
20260903045511 83 109 10.0 12.0 0.00 0.00 0.00 64 1013.9
20260903045011 84 120 8.0 12.0 0.00 0.00 0.00 64 1013.7
20260903044511 84 124 8.0 14.0 0.00 0.00 0.00 63 1013.7
20260903044011 84 124 9.0 17.0 0.00 0.00 0.00 63 1013.7
20260903043010 85 127 10.0 17.0 0.00 0.00 0.00 63 1013.7
20260903042511 85 118 14.0 17.0 0.00 0.00 0.00 62 1013.6
20260903042010 85 118 16.0 18.0 0.00 0.00 0.00 62 1013.6
20260903041010 86 116 15.0 18.0 0.00 0.00 0.00 60 1013.7
20260903040510 87 117 13.0 19.0 0.00 0.00 0.00 59 1013.6
20260903040010 87 119 14.0 19.0 0.00 0.00 0.00 58 1013.6
20260903035510 87 119 15.0 19.0 0.00 0.00 0.00 57 1013.5
20260903035010 87 118 11.0 18.0 0.00 0.00 0.00 56 1013.6
20260903034510 88 0 0.0 17.0 0.00 0.00 0.00 55 1013.6
20260903033510 88 117 10.0 17.0 0.00 0.00 0.00 53 1013.5
20260903033010 88 117 11.0 19.0 0.00 0.00 0.00 53 1013.5
20260903032510 89 117 13.0 19.0 0.00 0.00 0.00 52 1013.5
20260903032010 89 116 11.0 18.0 0.00 0.00 0.00 52 1013.4
20260903031510 89 117 10.0 18.0 0.00 0.00 0.00 52 1013.5
20260903030509 88 108 7.0 15.0 0.00 0.00 0.00 53 1013.4
20260903030010 88 117 9.0 15.0 0.00 0.00 0.00 53 1013.3
20260903025010 89 109 7.0 12.0 0.00 0.00 0.00 53 1013.2
20260903024509 89 114 12.0 12.0 0.00 0.00 0.00 53 1013.2
20260903024009 89 109 8.0 11.0 0.00 0.00 0.00 53 1013.1
20260903023509 89 96 9.0 11.0 0.00 0.00 0.00 52 1013.1
20260903022510 89 107 7.0 10.0 0.00 0.00 0.00 52 1013.0
20260903022009 89 113 8.0 10.0 0.00 0.00 0.00 52 1012.9
20260903021509 90 104 7.0 9.0 0.00 0.00 0.00 51 1013.0
20260903021009 90 101 9.0 11.0 0.00 0.00 0.00 51 1012.9
20260903020509 90 113 8.0 12.0 0.00 0.00 0.00 51 1012.8
20260903020009 90 115 9.0 12.0 0.00 0.00 0.00 51 1012.7
20260903015509 90 120 8.0 11.0 0.00 0.00 0.00 51 1012.6
20260903015009 91 111 8.0 11.0 0.00 0.00 0.00 51 1012.5
20260903014509 91 123 10.0 13.0 0.00 0.00 0.00 50 1012.4
20260903014009 91 122 9.0 13.0 0.00 0.00 0.00 49 1012.4
20260903013009 91 114 11.0 17.0 0.00 0.00 0.00 47 1012.3
20260903012509 92 105 11.0 18.0 0.00 0.00 0.00 46 1012.2
20260903012010 92 109 9.0 18.0 0.00 0.00 0.00 45 1012.1
20260903011509 92 104 9.0 11.0 0.00 0.00 0.00 44 1012.1
20260903011009 92 92 8.0 13.0 0.00 0.00 0.00 43 1012.1
20260903010508 93 95 8.0 14.0 0.00 0.00 0.00 43 1012.0
20260903010008 93 89 11.0 14.0 0.00 0.00 0.00 43 1011.9
20260903005508 93 103 10.0 14.0 0.00 0.00 0.00 42 1012.0
20260903005008 93 107 7.0 14.0 0.00 0.00 0.00 41 1012.0
20260903004508 94 95 8.0 15.0 0.00 0.00 0.00 41 1011.9
20260903004008 94 95 9.0 15.0 0.00 0.00 0.00 41 1011.9
20260903003508 94 96 11.0 19.0 0.00 0.00 0.00 40 1011.9
20260903003008 95 116 13.0 19.0 0.00 0.00 0.00 40 1011.8
20260903002509 95 98 14.0 16.0 0.00 0.00 0.00 40 1011.8
20260903001508 95 94 10.0 14.0 0.00 0.00 0.00 40 1011.9
20260903001008 95 90 10.0 14.0 0.00 0.00 0.00 40 1011.9
20260903000511 95 111 13.0 15.0 0.00 0.00 0.00 39 1011.8
20260903000008 95 111 12.0 16.0 0.00 0.00 0.00 39 1011.8
20260902235508 95 109 10.0 16.0 0.00 0.00 0.00 39 1011.8
20260902235008 96 91 8.0 17.0 0.00 0.00 0.00 39 1011.9
20260902234508 96 108 12.0 17.0 0.00 0.00 0.00 39 1011.8
20260902234008 96 82 9.0 18.0 0.00 0.00 0.00 39 1011.9
20260902233008 96 75 15.0 18.0 0.00 0.00 0.00 38 1011.8
20260902232508 96 84 15.0 18.0 0.00 0.00 0.00 39 1011.7
20260902231007 96 63 14.0 19.0 0.00 0.00 0.00 39 1011.7
20260902230507 96 76 12.0 16.0 0.00 0.00 0.00 39 1011.8
20260902230007 96 100 11.0 17.0 0.00 0.00 0.00 38 1011.8
20260902225507 96 85 11.0 22.0 0.00 0.00 0.00 39 1011.9
20260902225007 96 72 10.0 22.0 0.00 0.00 0.00 39 1011.9
20260902224007 97 83 13.0 20.0 0.00 0.00 0.00 39 1011.9
20260902223507 96 103 12.0 20.0 0.00 0.00 0.00 39 1012.0
20260902223007 96 68 10.0 18.0 0.00 0.00 0.00 39 1012.0
20260902222507 96 67 11.0 23.0 0.00 0.00 0.00 39 1012.1
20260902222007 96 99 15.0 23.0 0.00 0.00 0.00 39 1012.0
20260902221507 96 55 20.0 20.0 0.00 0.00 0.00 38 1012.0
20260902221007 98 84 13.0 13.0 0.00 0.00 0.00 37 1012.2
20260902220506 97 108 6.0 15.0 0.00 0.00 0.00 38 1012.3
20260902220006 96 93 2.0 18.0 0.00 0.00 0.00 38 1012.3
20260902215506 96 76 9.0 18.0 0.00 0.00 0.00 38 1012.4
20260902215006 96 96 7.0 16.0 0.00 0.00 0.00 38 1012.4
20260902214006 96 66 13.0 20.0 0.00 0.00 0.00 37 1012.5
20260902213006 96 82 12.0 17.0 0.00 0.00 0.00 38 1012.5
20260902212506 96 88 13.0 17.0 0.00 0.00 0.00 39 1012.5
20260902212006 95 92 15.0 21.0 0.00 0.00 0.00 39 1012.6
20260902211506 95 71 11.0 21.0 0.00 0.00 0.00 40 1012.7
20260902211006 96 31 13.0 17.0 0.00 0.00 0.00 39 1012.7
20260902210506 96 95 13.0 17.0 0.00 0.00 0.00 39 1012.7
20260902205006 96 45 15.0 15.0 0.00 0.00 0.00 39 1013.0
20260902204506 95 46 5.0 15.0 0.00 0.00 0.00 39 1013.1
20260902204006 95 62 12.0 15.0 0.00 0.00 0.00 40 1013.1
20260902203506 96 91 6.0 14.0 0.00 0.00 0.00 39 1013.2
20260902203006 95 48 7.0 18.0 0.00 0.00 0.00 39 1013.2
20260902202505 96 84 14.0 18.0 0.00 0.00 0.00 38 1013.2
20260902202006 95 40 9.0 17.0 0.00 0.00 0.00 40 1013.4
20260902201505 95 37 14.0 17.0 0.00 0.00 0.00 41 1013.4
20260902201005 95 47 13.0 17.0 0.00 0.00 0.00 41 1013.6
20260902200505 95 41 12.0 12.0 0.00 0.00 0.00 40 1013.6
20260902200005 96 71 10.0 11.0 0.00 0.00 0.00 39 1013.7
20260902195505 95 147 3.0 17.0 0.00 0.00 0.00 39 1013.7
20260902195005 95 51 11.0 18.0 0.00 0.00 0.00 40 1013.8
20260902194505 95 64 11.0 18.0 0.00 0.00 0.00 40 1013.9
20260902194035 95 105 9.0 15.0 0.00 0.00 0.00 39 1014.0
20260902193505 96 103 13.0 19.0 0.00 0.00 0.00 39 1013.9
20260902193005 94 114 3.0 19.0 0.00 0.00 0.00 40 1014.1
20260902192504 95 62 16.0 18.0 0.00 0.00 0.00 39 1014.2
20260902192004 94 57 3.0 12.0 0.00 0.00 0.00 41 1014.3
20260902191504 95 79 9.0 18.0 0.00 0.00 0.00 40 1014.4
20260902191005 95 56 8.0 18.0 0.00 0.00 0.00 41 1014.4
20260902190004 94 57 9.0 12.0 0.00 0.00 0.00 43 1014.6
20260902185505 94 116 8.0 11.0 0.00 0.00 0.00 42 1014.7
20260902185004 94 123 3.0 15.0 0.00 0.00 0.00 43 1014.8
20260902184504 93 79 5.0 15.0 0.00 0.00 0.00 43 1014.8
20260902184004 93 70 7.0 13.0 0.00 0.00 0.00 44 1014.9
20260902183504 93 103 11.0 15.0 0.00 0.00 0.00 45 1014.9
20260902183004 94 114 10.0 15.0 0.00 0.00 0.00 44 1015.0
20260902182004 93 136 7.0 12.0 0.00 0.00 0.00 44 1015.2
20260902181504 94 52 2.0 14.0 0.00 0.00 0.00 43 1015.3
20260902181004 92 65 5.0 14.0 0.00 0.00 0.00 45 1015.4
20260902180504 93 75 4.0 14.0 0.00 0.00 0.00 43 1015.5
20260902175004 93 76 12.0 15.0 0.00 0.00 0.00 44 1015.6
20260902174503 93 94 9.0 14.0 0.00 0.00 0.00 45 1015.8
20260902174003 93 89 6.0 12.0 0.00 0.00 0.00 45 1015.8
20260902173504 92 149 9.0 15.0 0.00 0.00 0.00 45 1015.8
20260902173003 92 87 8.0 15.0 0.00 0.00 0.00 46 1016.0
20260902172004 92 217 3.0 15.0 0.00 0.00 0.00 47 1016.1
20260902171503 91 56 6.0 15.0 0.00 0.00 0.00 49 1016.2
20260902171033 91 62 12.0 15.0 0.00 0.00 0.00 48 1016.2
20260902170503 92 86 11.0 11.0 0.00 0.00 0.00 47 1016.2
20260902170003 91 15 2.0 12.0 0.00 0.00 0.00 47 1016.4
20260902165503 91 100 7.0 12.0 0.00 0.00 0.00 47 1016.4
20260902165003 91 118 8.0 14.0 0.00 0.00 0.00 47 1016.4
20260902164504 91 41 10.0 14.0 0.00 0.00 0.00 47 1016.5
20260902164003 91 138 11.0 13.0 0.00 0.00 0.00 47 1016.5
20260902163503 92 135 7.0 10.0 0.00 0.00 0.00 46 1016.6
20260902163004 90 160 4.0 11.0 0.00 0.00 0.00 47 1016.7
20260902162504 91 133 9.0 11.0 0.00 0.00 0.00 47 1016.7
20260902162004 90 133 6.0 9.0 0.00 0.00 0.00 49 1016.7
20260902161503 91 160 6.0 9.0 0.00 0.00 0.00 48 1016.7
20260902161003 90 97 5.0 9.0 0.00 0.00 0.00 49 1016.7
20260902160503 90 83 1.0 7.0 0.00 0.00 0.00 50 1016.7
20260902160004 90 112 5.0 11.0 0.00 0.00 0.00 50 1016.8
20260902155503 89 111 6.0 11.0 0.00 0.00 0.00 49 1016.9
20260902155003 90 103 10.0 10.0 0.00 0.00 0.00 51 1016.8
20260902154503 90 90 8.0 10.0 0.00 0.00 0.00 51 1016.8
20260902153503 88 89 4.0 11.0 0.00 0.00 0.00 53 1016.8
20260902153003 88 118 11.0 11.0 0.00 0.00 0.00 53 1016.8
20260902152502 88 138 3.0 11.0 0.00 0.00 0.00 54 1016.8
20260902152003 87 126 5.0 11.0 0.00 0.00 0.00 55 1016.7
20260902151502 87 153 10.0 10.0 0.00 0.00 0.00 55 1016.6
20260902151003 88 157 10.0 10.0 0.00 0.00 0.00 54 1016.6
20260902150035 86 106 7.0 14.0 0.00 0.00 0.00 56 1016.6
20260902145502 86 207 1.0 9.0 0.00 0.00 0.00 57 1016.6
20260902145002 86 164 9.0 9.0 0.00 0.00 0.00 56 1016.6
20260902144032 86 118 6.0 10.0 0.00 0.00 0.00 58 1016.7
20260902143502 86 115 8.0 10.0 0.00 0.00 0.00 60 1016.6
20260902143032 85 106 4.0 11.0 0.00 0.00 0.00 61 1016.7
20260902142502 85 124 8.0 11.0 0.00 0.00 0.00 61 1016.7
20260902142002 84 126 4.0 10.0 0.00 0.00 0.00 62 1016.7
20260902141502 84 160 8.0 10.0 0.00 0.00 0.00 63 1016.7
20260902140502 84 147 8.0 10.0 0.00 0.00 0.00 63 1016.6
20260902140002 84 132 8.0 10.0 0.00 0.00 0.00 63 1016.6
20260902135502 84 131 7.0 10.0 0.00 0.00 0.00 64 1016.7
20260902135002 83 125 5.0 10.0 0.00 0.00 0.00 65 1016.7
20260902134502 83 153 6.0 9.0 0.00 0.00 0.00 65 1016.7
20260902133502 83 129 8.0 14.0 0.00 0.00 0.00 66 1016.7
20260902133002 83 133 8.0 9.0 0.00 0.00 0.00 66 1016.7
20260902132502 82 126 6.0 9.0 0.00 0.00 0.00 67 1016.7
20260902132002 82 108 5.0 6.0 0.00 0.00 0.00 68 1016.6
20260902131502 82 118 5.0 6.0 0.00 0.00 0.00 68 1016.5
20260902131002 82 110 3.0 6.0 0.00 0.00 0.00 69 1016.4
20260902130502 81 109 4.0 4.0 0.00 0.00 0.00 70 1016.3
20260902130002 81 148 3.0 3.0 0.00 0.00 0.00 70 1016.3
20260902125502 80 149 3.0 3.0 0.00 0.00 0.00 71 1016.3
20260902125032 80 150 2.0 2.0 0.00 0.00 0.00 71 1016.3
20260902124532 79 119 1.0 2.0 0.00 0.00 0.00 72 1016.3
20260902124002 79 194 1.0 2.0 0.00 0.00 0.00 73 1016.3
20260902123532 79 301 2.0 2.0 0.00 0.00 0.00 73 1016.3
20260902122501 79 99 2.0 5.0 0.00 0.00 0.00 74 1016.2
20260902122001 79 69 3.0 4.0 0.00 0.00 0.00 74 1016.2
20260902121031 78 65 3.0 4.0 0.00 0.00 0.00 75 1016.2
20260902120001 78 104 4.0 7.0 0.00 0.00 0.00 75 1016.1
20260902115532 78 105 5.0 7.0 0.00 0.00 0.00 75 1016.1
20260902114001 78 88 4.0 6.0 0.00 0.00 0.00 75 1016.0
20260902113501 78 94 5.0 7.0 0.00 0.00 0.00 75 1016.0
20260902113001 78 109 6.0 7.0 0.00 0.00 0.00 75 1016.0
20260902112502 78 106 6.0 7.0 0.00 0.00 0.00 74 1016.0
20260902112001 78 108 6.0 7.0 0.00 0.00 0.00 74 1016.0
20260902111001 79 118 5.0 6.0 0.00 0.00 0.00 74 1016.0
20260902110501 79 117 5.0 6.0 0.00 0.00 0.00 74 1016.0
20260902105501 79 109 6.0 6.0 0.00 0.00 0.00 73 1015.8